Location: Kalispell
(48.1967°N, 114.3128°W)
Time: 07:31:29
(UTC-06:00)

Amateur Radio Satellites - All Passes

Search period start: 29 April 2017 07:01
Search period end: 30 April 2017 07:01
Location: Kalispell, 48.1967°N, 114.3128°W

Satellite Date Start Highest point End Downlink Frequencies (MHz)
Time Altitude Azimuth
SO-50 29 Apr 07:02:37 07:07:08 58° 124° (ESE) 07:11:38 436.795
CUTE-I 29 Apr 07:10:11 07:14:36 26° 93° (E) 07:18:58 437.470
XW-2D 29 Apr 07:19:19 07:22:46 31° 96° (E) 07:26:12 145.860 - 145.880
ITAMSAT 1 29 Apr 07:24:13 07:25:36 11° 310° (NW) 07:27:00 435.822/435.867
XW-2B 29 Apr 07:26:16 07:29:50 36° 98° (E) 07:33:22 145.730 - 145.750
KAITUO 1B 29 Apr 07:29:03 07:32:29 31° 97° (E) 07:35:53 145.475/437.950
DOVE 4 29 Apr 07:33:48 07:38:26 70° 102° (ESE) 07:42:46 437.250
AO-7 29 Apr 07:34:59 07:41:46 29° 311° (NW) 07:48:32 .
STRAND 1 29 Apr 07:37:01 07:41:58 54° 69° (ENE) 07:46:56 437.568
XW-2C 29 Apr 07:38:13 07:41:57 50° 100° (E) 07:45:40 145.795 - 145.815
LilacSat-2 29 Apr 07:40:28 07:44:17 56° 101° (ESE) 07:48:03 437.200
HO-68 29 Apr 07:40:31 07:44:51 17° 86° (E) 07:49:09 435.675
RS-15 29 Apr 07:48:55 08:00:34 58° 115° (ESE) 08:12:29 29.354- 29.394
CUTE 1.7 + AOD 2 29 Apr 07:50:07 07:51:23 11° 87° (E) 07:52:38 437.475
XW-2F 29 Apr 08:01:30 08:05:19 89° 82° (E) 08:09:09 145.980 - 146.000
NUDT-PHONESAT 29 Apr 08:04:11 08:07:56 80° 103° (ESE) 08:11:41 437.300
SEEDS 29 Apr 08:05:11 08:05:47 10° 86° (E) 08:06:23 437.485
Tancredo 1 29 Apr 08:10:44 08:13:08 21° 141° (SE) 08:15:33 437.200
YUBILEINY 29 Apr 08:25:29 08:29:20 13° 314° (NW) 08:33:12 435.215
PCSat 29 Apr 08:27:26 08:29:26 12° 14° (NNE) 08:31:25 145.827
M-CUBED/EXP-1 PRIME 29 Apr 08:28:36 08:33:03 44° 256° (WSW) 08:37:31 437.505
SO-50 29 Apr 08:43:58 08:47:54 28° 324° (NW) 08:51:50 436.795
CUTE-I 29 Apr 08:49:47 08:54:55 51° 292° (WNW) 09:00:01 437.470
ISS 29 Apr 08:53:41 08:56:44 37° 146° (SSE) 08:59:47 437.550
XW-2D 29 Apr 08:53:45 08:56:50 24° 294° (WNW) 08:59:56 145.860 - 145.880
XW-2B 29 Apr 09:00:54 09:03:49 21° 295° (WNW) 09:06:45 145.730 - 145.750
XW-2A 29 Apr 09:01:43 09:05:04 60° 101° (ESE) 09:08:23 145.665 - 145.685
AAUSAT CUBESAT 2 29 Apr 09:02:09 09:05:19 20° 92° (E) 09:08:27 437.432
KAITUO 1B 29 Apr 09:03:19 09:06:21 23° 294° (WNW) 09:09:24 145.475/437.950
UWE-3 29 Apr 09:04:46 09:07:50 19° 92° (E) 09:10:56 435.000/436.395/437.385
DOVE 4 29 Apr 09:12:42 09:15:32 16° 302° (WNW) 09:18:16 437.250
XW-2C 29 Apr 09:13:22 09:15:47 16° 297° (WNW) 09:18:11 145.795 - 145.815
LilacSat-2 29 Apr 09:15:53 09:18:08 15° 298° (WNW) 09:20:24 437.200
STRAND 1 29 Apr 09:17:27 09:21:27 23° 268° (W) 09:25:29 437.568
CUTE 1.7 + AOD 2 29 Apr 09:23:29 09:27:48 84° 285° (WNW) 09:32:06 437.475
CUBEBUG 2 29 Apr 09:23:32 09:27:34 46° 99° (E) 09:31:39 437.445
HO-68 29 Apr 09:26:28 09:33:43 79° 106° (ESE) 09:40:55 435.675
TIGRISAT 29 Apr 09:30:10 09:32:52 16° 60° (ENE) 09:35:32 435.000
SEEDS 29 Apr 09:37:49 09:42:07 89° 271° (W) 09:46:22 437.485
XW-2F 29 Apr 09:38:31 09:38:50 10° 302° (WNW) 09:39:08 145.980 - 146.000
NUDT-PHONESAT 29 Apr 09:40:21 09:41:17 11° 301° (WNW) 09:42:13 437.300
Tancredo 1 29 Apr 09:45:39 09:48:45 81° 337° (NNW) 09:51:52 437.200
O/OREOS (USA 219) 29 Apr 09:46:43 09:49:17 15° 99° (E) 09:51:53 437.305
UNISAT 6 29 Apr 09:51:11 09:54:49 27° 65° (ENE) 09:58:25 437.425
ZACube-1 29 Apr 09:52:55 09:56:49 35° 97° (E) 10:00:46 437.345
FO-29 29 Apr 09:56:08 10:01:18 32° 64° (ENE) 10:06:03 435.910
AO-73 29 Apr 09:57:59 10:01:54 36° 97° (E) 10:05:52 145.935
PRISM 29 Apr 09:59:02 10:03:03 48° 71° (ENE) 10:07:05 437.425
RS-15 29 Apr 10:01:11 10:13:14 60° 321° (NW) 10:25:30 29.354- 29.394
Oscar 11 29 Apr 10:09:51 10:13:59 40° 98° (E) 10:18:05 .
PCSat 29 Apr 10:10:01 10:14:44 29° 39° (NE) 10:19:26 145.827
SO-50 29 Apr 10:28:23 10:29:53 11° 347° (NNW) 10:31:22 436.795
ISS 29 Apr 10:29:55 10:33:09 58° 345° (NNW) 10:36:24 437.550
XW-2A 29 Apr 10:36:18 10:37:22 11° 299° (WNW) 10:38:25 145.665 - 145.685
AAUSAT CUBESAT 2 29 Apr 10:36:59 10:40:59 43° 290° (WNW) 10:44:56 437.432
UWE-3 29 Apr 10:40:31 10:44:32 45° 289° (WNW) 10:48:37 435.000/436.395/437.385
OBJECT BX 29 Apr 10:50:43 10:53:43 23° 94° (E) 10:56:42 145.990 - 145.960
DELFI C3 29 Apr 10:53:53 10:57:35 34° 97° (E) 11:01:14 145.870
AIST 2D 29 Apr 11:00:13 11:02:24 16° 64° (ENE) 11:04:36 435.315
CUBEBUG 2 29 Apr 11:00:52 11:03:55 20° 297° (WNW) 11:06:59 437.445
CUTE 1.7 + AOD 2 29 Apr 11:01:30 11:02:56 11° 303° (WNW) 11:04:21 437.475
POLYITAN 1 29 Apr 11:04:42 11:06:53 14° 59° (ENE) 11:09:06 437.675
TIGRISAT 29 Apr 11:04:49 11:09:08 63° 259° (W) 11:13:23 435.000
QB50P2 29 Apr 11:10:50 11:13:35 17° 61° (ENE) 11:16:20 145.880/145.840
HO-68 29 Apr 11:15:01 11:20:46 27° 307° (NW) 11:26:30 435.675
SEEDS 29 Apr 11:15:31 11:17:07 12° 302° (WNW) 11:18:44 437.485
Tancredo 1 29 Apr 11:21:55 11:24:53 41° 359° (N) 11:27:51 437.200
O/OREOS (USA 219) 29 Apr 11:23:31 11:28:06 72° 298° (WNW) 11:32:44 437.305
UNISAT 6 29 Apr 11:27:26 11:31:26 35° 263° (W) 11:35:23 437.425
NANOSAT C BR1 29 Apr 11:29:07 11:32:19 21° 63° (ENE) 11:35:30 145.865
ZACube-1 29 Apr 11:29:28 11:32:59 26° 294° (WNW) 11:36:33 437.345
AO-73 29 Apr 11:34:31 11:38:00 26° 294° (WNW) 11:41:33 145.935
PRISM 29 Apr 11:35:41 11:38:36 18° 268° (W) 11:41:32 437.425
FO-29 29 Apr 11:40:32 11:46:19 45° 261° (W) 11:51:34 435.910
LO-87 29 Apr 11:45:12 11:47:12 14° 90° (E) 11:49:12 145.935 - 145.965
Oscar 11 29 Apr 11:46:25 11:49:56 24° 296° (WNW) 11:53:26 .
PCSat 29 Apr 11:53:10 11:58:34 66° 241° (WSW) 12:03:56 145.827
DUCHIFAT 1 29 Apr 11:56:28 12:00:16 35° 68° (ENE) 12:04:04 145.980
EO-79 29 Apr 11:57:57 12:01:56 43° 70° (ENE) 12:05:56 145.935-145.965
ESTCUBE 1 29 Apr 12:02:11 12:04:56 16° 89° (E) 12:07:41 437.505/2401.250
ISS 29 Apr 12:06:49 12:09:58 44° 5° (N) 12:13:08 437.550
SO-50 29 Apr 12:10:55 12:12:24 11° 13° (NNE) 12:13:53 436.795
Oscar 19 29 Apr 12:16:20 12:18:16 12° 52° (NE) 12:20:12 437.125/150
RS-15 29 Apr 12:17:43 12:28:54 37° 353° (N) 12:40:01 29.354- 29.394
OBJECT BX 29 Apr 12:24:13 12:27:25 29° 292° (WNW) 12:30:37 145.990 - 145.960
DELFI C3 29 Apr 12:28:58 12:32:13 24° 295° (WNW) 12:35:26 145.870
AIST 2D 29 Apr 12:32:03 12:35:20 40° 262° (W) 12:38:39 435.315
POLYITAN 1 29 Apr 12:37:56 12:42:08 74° 257° (WSW) 12:46:21 437.675
Gurwin Techsat 1B 29 Apr 12:42:16 12:44:33 13° 52° (NE) 12:46:51 435.225
AO-85 29 Apr 12:42:59 12:46:48 33° 119° (ESE) 12:50:27 145.980
SPROUT 29 Apr 12:43:09 12:43:28 10° 86° (E) 12:43:48 437.525
QB50P2 29 Apr 12:44:48 12:48:58 58° 259° (W) 12:53:08 145.880/145.840
BUGSAT 1 29 Apr 12:45:43 12:49:32 38° 69° (ENE) 12:53:20 437.445
Tancredo 1 29 Apr 12:57:57 13:01:03 68° 18° (NNE) 13:04:08 437.200
BEESAT 3 29 Apr 13:03:02 13:04:13 11° 109° (ESE) 13:05:23 437.485
NANOSAT C BR1 29 Apr 13:03:45 13:07:46 43° 261° (W) 13:11:48 145.865
AO-7 29 Apr 13:05:54 13:09:31 14° 32° (NNE) 13:13:07 .
O/OREOS (USA 219) 29 Apr 13:06:04 13:08:24 14° 319° (NW) 13:10:43 437.305
LO-87 29 Apr 13:17:30 13:20:55 44° 289° (WNW) 13:24:18 145.935 - 145.965
50 SAT 29 Apr 13:31:34 13:33:57 17° 93° (E) 13:36:20 437.505
DUCHIFAT 1 29 Apr 13:32:32 13:36:00 25° 266° (W) 13:39:30 145.980
EO-79 29 Apr 13:34:43 13:37:54 21° 267° (W) 13:41:06 145.935-145.965
VELOX 1 29 Apr 13:37:12 13:41:22 38° 98° (E) 13:45:28 145.980
ESTCUBE 1 29 Apr 13:37:40 13:42:12 66° 287° (WNW) 13:46:42 437.505/2401.250
PCSat 29 Apr 13:40:04 13:40:54 10° 259° (W) 13:41:46 145.827
UKube-1 29 Apr 13:41:05 13:42:46 12° 88° (E) 13:44:27 .
ISS 29 Apr 13:43:22 13:46:38 79° 204° (SSW) 13:49:54 437.550
SO-50 29 Apr 13:50:27 13:54:22 28° 37° (NE) 13:58:15 436.795
Oscar 19 29 Apr 13:51:30 13:56:37 66° 71° (ENE) 14:01:47 437.125/150
SPROUT 29 Apr 14:15:45 14:20:02 89° 271° (W) 14:24:16 437.525
Gurwin Techsat 1B 29 Apr 14:18:17 14:23:33 68° 72° (ENE) 14:28:52 435.225
DX 1 29 Apr 14:18:41 14:22:49 39° 98° (E) 14:26:53 434.975-435.025
BUGSAT 1 29 Apr 14:21:47 14:25:01 22° 266° (W) 14:28:15 437.445
AO-85 29 Apr 14:23:23 14:27:10 34° 317° (NW) 14:30:50 145.980
YUBILEINY 29 Apr 14:30:23 14:37:26 26° 59° (ENE) 14:44:28 435.215
RS-15 29 Apr 14:33:26 14:45:15 46° 27° (NNE) 14:56:39 29.354- 29.394
Tancredo 1 29 Apr 14:34:06 14:36:45 26° 217° (SW) 14:39:24 437.200
BEESAT 3 29 Apr 14:37:10 14:41:08 89° 317° (NW) 14:45:10 437.485
BEESAT 2 29 Apr 14:43:31 14:47:18 44° 121° (ESE) 14:51:09 435.950
AO-7 29 Apr 14:52:33 15:00:08 42° 56° (NE) 15:07:44 .
50 SAT 29 Apr 15:03:48 15:07:01 35° 290° (WNW) 15:10:12 437.505
VELOX 1 29 Apr 15:13:58 15:17:39 26° 296° (WNW) 15:21:19 145.980
UKube-1 29 Apr 15:15:01 15:19:22 79° 286° (WNW) 15:23:40 .
ESTCUBE 1 29 Apr 15:17:53 15:18:07 10° 306° (NW) 15:18:20 437.505/2401.250
ISS 29 Apr 15:20:38 15:22:43 16° 223° (SW) 15:24:46 437.550
ITAMSAT 1 29 Apr 15:24:31 15:29:27 47° 68° (ENE) 15:34:24 435.822/435.867
SO-50 29 Apr 15:30:41 15:35:07 56° 237° (WSW) 15:39:31 436.795
Oscar 19 29 Apr 15:32:46 15:36:25 19° 270° (W) 15:40:07 437.125/150
BEESAT 29 Apr 15:45:42 15:49:24 22° 93° (E) 15:53:05 436.000
SPROUT 29 Apr 15:53:41 15:55:15 12° 303° (WNW) 15:56:51 437.525
DX 1 29 Apr 15:55:15 15:58:48 25° 297° (WNW) 16:02:21 434.975-435.025
Gurwin Techsat 1B 29 Apr 16:00:17 16:04:01 19° 270° (W) 16:07:46 435.225
AO-85 29 Apr 16:08:18 16:08:44 10° 340° (NNW) 16:09:09 145.980
BEESAT 3 29 Apr 16:16:31 16:19:18 18° 328° (NNW) 16:22:06 437.485
BEESAT 2 29 Apr 16:21:44 16:25:13 28° 321° (NW) 16:28:45 435.950
YUBILEINY 29 Apr 16:26:36 16:35:25 85° 263° (W) 16:44:14 435.215
ITUPSAT 1 29 Apr 16:27:55 16:32:36 51° 100° (E) 16:37:16 437.325
AO-7 29 Apr 16:44:37 16:52:42 56° 257° (WSW) 17:00:51 .
RS-15 29 Apr 16:46:47 16:59:09 84° 235° (SW) 17:10:54 29.354- 29.394
MOZHAYETS 4 29 Apr 16:47:01 16:51:26 43° 98° (E) 16:55:51
UKube-1 29 Apr 16:53:23 16:54:38 11° 305° (NW) 16:55:53 .
CUTE-I 29 Apr 16:59:58 17:01:32 11° 50° (NE) 17:03:07 437.470
ITAMSAT 1 29 Apr 17:04:45 17:09:08 27° 266° (W) 17:13:31 435.822/435.867
DOVE 4 29 Apr 17:06:18 17:09:42 18° 59° (ENE) 17:13:02 437.250
BEESAT 29 Apr 17:22:50 17:27:27 50° 291° (WNW) 17:32:04 436.000
CUBESAT XI-V 29 Apr 17:46:56 17:51:15 34° 96° (E) 17:55:31 437.345
XW-2D 29 Apr 18:04:08 18:07:17 26° 67° (ENE) 18:10:27 145.860 - 145.880
ITUPSAT 1 29 Apr 18:06:23 18:10:07 23° 299° (WNW) 18:13:52 437.325
XW-2B 29 Apr 18:11:00 18:14:17 29° 68° (ENE) 18:17:35 145.730 - 145.750
KKS-1 29 Apr 18:11:48 18:16:11 55° 101° (E) 18:20:31 437.445
KAITUO 1B 29 Apr 18:12:41 18:15:44 25° 67° (ENE) 18:18:50 145.475/437.950
HO-68 29 Apr 18:13:39 18:18:45 22° 50° (NE) 18:23:51 435.675
O/OREOS (USA 219) 29 Apr 18:13:41 18:14:48 11° 38° (NE) 18:15:54 437.305
XW-2C 29 Apr 18:22:49 18:26:19 40° 71° (ENE) 18:29:51 145.795 - 145.815
MOZHAYETS 4 29 Apr 18:24:37 18:28:23 25° 296° (WNW) 18:32:09
YUBILEINY 29 Apr 18:25:01 18:30:54 21° 285° (WNW) 18:36:49 435.215
LilacSat-2 29 Apr 18:25:36 18:29:11 45° 71° (ENE) 18:32:49 437.200
STARS 29 Apr 18:34:07 18:38:17 42° 99° (E) 18:42:25 437.465
CUTE-I 29 Apr 18:35:18 18:40:33 59° 69° (ENE) 18:45:47 437.470
DOVE 4 29 Apr 18:41:30 18:46:48 82° 258° (WSW) 18:51:57 437.250
AO-7 29 Apr 18:45:24 18:47:24 11° 279° (W) 18:49:25 .
XW-2F 29 Apr 18:45:30 18:49:12 70° 75° (ENE) 18:52:57 145.980 - 146.000
CUTE 1.7 + AOD 2 29 Apr 18:46:01 18:48:10 14° 59° (ENE) 18:50:18 437.475
NUDT-PHONESAT 29 Apr 18:46:40 18:50:16 59° 73° (ENE) 18:53:54 437.300
SEEDS 29 Apr 18:59:48 19:01:38 13° 58° (ENE) 19:03:29 437.485
RS-15 29 Apr 19:00:38 19:09:47 26° 260° (W) 19:18:40 29.354- 29.394
CUBESAT XI-V 29 Apr 19:24:22 19:28:35 32° 294° (WNW) 19:32:45 437.345
AO-85 29 Apr 19:30:34 19:33:12 17° 31° (NNE) 19:35:50 145.980
XW-2A 29 Apr 19:36:25 19:39:29 34° 70° (ENE) 19:42:34 145.665 - 145.685
XW-2D 29 Apr 19:38:12 19:41:25 27° 265° (W) 19:44:41 145.860 - 145.880
NO-84 29 Apr 19:41:16 19:44:45 37° 139° (SE) 19:47:57 435.350 FM
STRAND 1 29 Apr 19:45:21 19:47:52 14° 87° (E) 19:50:20 437.568
XW-2B 29 Apr 19:45:26 19:48:30 24° 266° (W) 19:51:36 145.730 - 145.750
KAITUO 1B 29 Apr 19:46:30 19:49:42 27° 265° (W) 19:52:55 145.475/437.950
KKS-1 29 Apr 19:49:11 19:52:22 20° 299° (WNW) 19:55:31 437.445
O/OREOS (USA 219) 29 Apr 19:50:49 19:55:19 53° 59° (ENE) 19:59:47 437.305
AAUSAT CUBESAT 2 29 Apr 19:55:41 19:58:54 22° 64° (ENE) 20:02:08 437.432
XW-2C 29 Apr 19:58:07 20:00:42 18° 268° (W) 20:03:19 145.795 - 145.815
HO-68 29 Apr 19:58:21 20:05:30 83° 71° (ENE) 20:12:43 435.675
LilacSat-2 29 Apr 20:01:20 20:03:43 16° 269° (W) 20:06:08 437.200
UWE-3 29 Apr 20:05:13 20:08:36 24° 65° (ENE) 20:11:59 435.000/436.395/437.385
STARS 29 Apr 20:10:56 20:14:25 24° 297° (WNW) 20:17:52 437.465
CUTE-I 29 Apr 20:16:52 20:20:59 22° 268° (W) 20:25:06 437.470
CUTE 1.7 + AOD 2 29 Apr 20:19:11 20:23:25 77° 258° (WSW) 20:27:41 437.475
DOVE 4 29 Apr 20:23:02 20:25:11 12° 274° (W) 20:27:20 437.250
NUDT-PHONESAT 29 Apr 20:23:10 20:24:34 12° 271° (W) 20:26:00 437.300
XW-2F 29 Apr 20:23:12 20:23:50 10° 272° (W) 20:24:28 145.980 - 146.000
CUBEBUG 2 29 Apr 20:24:49 20:29:03 60° 73° (ENE) 20:33:12 437.445
SEEDS 29 Apr 20:32:29 20:36:41 84° 256° (WSW) 20:40:57 437.485
ZACube-1 29 Apr 20:52:04 20:55:59 41° 70° (ENE) 20:59:54 437.345
AO-73 29 Apr 20:56:49 21:00:43 42° 70° (ENE) 21:04:38 145.935
Oscar 11 29 Apr 21:07:48 21:11:55 47° 71° (ENE) 21:16:05 .
AO-85 29 Apr 21:10:11 21:14:09 86° 49° (NE) 21:18:15 145.980
XW-2A 29 Apr 21:10:13 21:12:23 16° 268° (W) 21:14:33 145.665 - 145.685
BEESAT 3 29 Apr 21:13:31 21:17:00 27° 39° (NE) 21:20:28 437.485
NO-84 29 Apr 21:18:50 21:22:16 44° 337° (NNW) 21:25:25 435.350 FM
BEESAT 2 29 Apr 21:20:37 21:23:28 18° 32° (NNE) 21:26:18 435.950
STRAND 1 29 Apr 21:22:36 21:27:45 89° 283° (WNW) 21:32:52 437.568
AAUSAT CUBESAT 2 29 Apr 21:30:11 21:34:07 41° 262° (W) 21:38:07 437.432
O/OREOS (USA 219) 29 Apr 21:31:01 21:34:21 20° 259° (WSW) 21:37:39 437.305
OBJECT BX 29 Apr 21:32:22 21:34:57 19° 64° (ENE) 21:37:32 145.990 - 145.960
M-CUBED/EXP-1 PRIME 29 Apr 21:38:25 21:42:38 83° 110° (ESE) 21:46:28 437.505
UWE-3 29 Apr 21:41:01 21:44:56 36° 263° (W) 21:48:48 435.000/436.395/437.385
DELFI C3 29 Apr 21:42:33 21:46:08 33° 68° (ENE) 21:49:45 145.870
HO-68 29 Apr 21:48:45 21:54:03 22° 271° (W) 21:59:24 435.675
CUBEBUG 2 29 Apr 22:03:32 22:06:02 15° 270° (W) 22:08:32 437.445
LO-87 29 Apr 22:25:42 22:27:05 12° 61° (ENE) 22:28:29 145.935 - 145.965
ZACube-1 29 Apr 22:29:20 22:32:28 20° 268° (W) 22:35:35 437.345
AO-73 29 Apr 22:34:05 22:37:10 20° 268° (W) 22:40:15 145.935
Oscar 11 29 Apr 22:45:11 22:48:19 19° 269° (W) 22:51:28 .
FO-29 29 Apr 22:45:44 22:49:07 17° 90° (E) 22:52:36 435.910
BEESAT 3 29 Apr 22:50:54 22:54:46 46° 239° (WSW) 22:58:35 437.485
AO-85 29 Apr 22:52:36 22:53:58 11° 249° (WSW) 22:55:20 145.980
TIGRISAT 29 Apr 22:53:02 22:56:11 20° 92° (E) 22:59:21 435.000
NO-84 29 Apr 22:57:35 23:00:20 23° 357° (N) 23:02:55 435.350 FM
BEESAT 2 29 Apr 22:57:43 23:01:49 87° 47° (NE) 23:05:53 435.950
STRAND 1 29 Apr 23:03:16 23:06:13 16° 305° (NW) 23:09:09 437.568
ESTCUBE 1 29 Apr 23:04:49 23:08:21 23° 63° (ENE) 23:11:54 437.505/2401.250
OBJECT BX 29 Apr 23:05:00 23:08:24 37° 262° (W) 23:11:49 145.990 - 145.960
PRISM 29 Apr 23:11:47 23:15:49 46° 100° (E) 23:19:47 437.425
M-CUBED/EXP-1 PRIME 29 Apr 23:14:16 23:16:23 14° 310° (NW) 23:18:26 437.505
UNISAT 6 29 Apr 23:14:49 23:18:46 34° 97° (E) 23:22:44 437.425
DELFI C3 29 Apr 23:17:40 23:20:58 24° 266° (W) 23:24:17 145.870
SPROUT 29 Apr 23:38:49 23:41:04 14° 59° (ENE) 23:43:19 437.525
AIST 2D 29 Apr 23:55:03 23:56:18 11° 89° (E) 23:57:34 435.315
LO-87 29 Apr 23:56:25 00:00:02 67° 259° (W) 00:03:40 145.935 - 145.965
50 SAT 30 Apr 00:08:30 00:10:14 13° 62° (ENE) 00:11:58 437.505
POLYITAN 1 30 Apr 00:20:26 00:22:38 14° 89° (E) 00:24:50 437.675
QB50P2 30 Apr 00:26:45 00:29:36 17° 91° (E) 00:32:25 145.880/145.840
TIGRISAT 30 Apr 00:29:00 00:33:07 46° 290° (WNW) 00:37:17 435.000
FO-29 30 Apr 00:29:34 00:34:47 72° 288° (WNW) 00:40:19 435.910
NO-84 30 Apr 00:35:33 00:38:28 34° 18° (NNE) 00:41:13 435.350 FM
BEESAT 2 30 Apr 00:37:26 00:38:57 12° 251° (WSW) 00:40:27 435.950
VELOX 1 30 Apr 00:37:29 00:41:49 53° 71° (ENE) 00:46:11 145.980
UKube-1 30 Apr 00:38:22 00:41:18 18° 60° (ENE) 00:44:13 .
ESTCUBE 1 30 Apr 00:40:32 00:44:53 47° 261° (W) 00:49:17 437.505/2401.250
NANOSAT C BR1 30 Apr 00:44:36 00:47:54 22° 93° (E) 00:51:11 145.865
PRISM 30 Apr 00:47:44 00:50:48 20° 298° (WNW) 00:53:49 437.425
UNISAT 6 30 Apr 00:51:45 00:55:23 27° 295° (WNW) 00:59:03 437.425
DUCHIFAT 1 30 Apr 01:11:57 01:15:50 37° 98° (E) 01:19:43 145.980
SPROUT 30 Apr 01:12:09 01:16:24 76° 256° (WSW) 01:20:42 437.525
EO-79 30 Apr 01:14:18 01:18:23 47° 99° (E) 01:22:26 145.935-145.965
DX 1 30 Apr 01:17:15 01:21:31 55° 71° (ENE) 01:25:49 434.975-435.025
AIST 2D 30 Apr 01:26:23 01:29:52 56° 287° (WNW) 01:33:20 435.315
50 SAT 30 Apr 01:39:20 01:42:45 53° 260° (W) 01:46:12 437.505
POLYITAN 1 30 Apr 01:54:41 01:58:52 65° 287° (WNW) 02:03:02 437.675
BUGSAT 1 30 Apr 01:58:45 02:02:32 38° 98° (E) 02:06:16 437.445
Oscar 19 30 Apr 02:00:24 02:03:50 17° 89° (E) 02:07:15 437.125/150
QB50P2 30 Apr 02:01:36 02:05:42 51° 289° (WNW) 02:09:46 145.880/145.840
ITUPSAT 1 30 Apr 02:03:07 02:05:36 14° 56° (NE) 02:08:06 437.325
UKube-1 30 Apr 02:12:37 02:16:54 59° 258° (WSW) 02:21:12 .
NO-84 30 Apr 02:13:10 02:16:01 41° 219° (SW) 02:18:44 435.350 FM
VELOX 1 30 Apr 02:15:26 02:18:35 19° 269° (W) 02:21:45 145.980
FO-29 30 Apr 02:16:58 02:19:05 12° 307° (NW) 02:21:13 435.910
NANOSAT C BR1 30 Apr 02:19:50 02:23:46 39° 291° (WNW) 02:27:40 145.865
Gurwin Techsat 1B 30 Apr 02:31:34 02:35:27 20° 90° (E) 02:39:20 435.225
PCSat 30 Apr 02:38:00 02:43:16 55° 117° (ESE) 02:48:35 145.827
DUCHIFAT 1 30 Apr 02:47:59 02:51:21 24° 296° (WNW) 02:54:43 145.980
EO-79 30 Apr 02:50:47 02:53:50 20° 298° (WNW) 02:56:53 145.935-145.965
DX 1 30 Apr 02:55:03 02:58:03 18° 269° (W) 03:01:02 434.975-435.025
BEESAT 30 Apr 02:55:13 02:59:35 38° 67° (ENE) 03:04:00 436.000
BUGSAT 1 30 Apr 03:34:34 03:37:42 22° 296° (WNW) 03:40:49 437.445
ITAMSAT 1 30 Apr 03:35:46 03:37:32 12° 86° (E) 03:39:17 435.822/435.867
ITUPSAT 1 30 Apr 03:37:59 03:42:45 89° 71° (ENE) 03:47:33 437.325
YUBILEINY 30 Apr 03:38:01 03:44:26 24° 77° (ENE) 03:50:53 435.215
Oscar 19 30 Apr 03:38:29 03:43:42 72° 288° (WNW) 03:48:53 437.125/150
KKS-1 30 Apr 03:39:59 03:41:35 12° 55° (NE) 03:43:11 437.445
MOZHAYETS 4 30 Apr 03:52:06 03:56:35 62° 72° (ENE) 04:01:07
Gurwin Techsat 1B 30 Apr 04:10:36 04:15:52 65° 289° (WNW) 04:21:07 435.225
PCSat 30 Apr 04:22:06 04:26:57 32° 318° (NW) 04:31:51 145.827
BEESAT 30 Apr 04:33:21 04:37:27 29° 265° (W) 04:41:36 436.000
AO-7 30 Apr 04:41:47 04:49:34 42° 98° (E) 04:57:19 .
CUBESAT XI-V 30 Apr 04:53:23 04:57:52 49° 70° (ENE) 05:02:24 437.345
ITAMSAT 1 30 Apr 05:12:38 05:17:51 80° 105° (ESE) 05:23:01 435.822/435.867
KKS-1 30 Apr 05:12:56 05:17:23 80° 76° (ENE) 05:21:53 437.445
ITUPSAT 1 30 Apr 05:19:23 05:21:16 12° 273° (W) 05:23:08 437.325
Oscar 19 30 Apr 05:19:45 05:22:08 13° 307° (NW) 05:24:31 437.125/150
MOZHAYETS 4 30 Apr 05:31:16 05:34:10 17° 271° (W) 05:37:06
YUBILEINY 30 Apr 05:31:26 05:40:09 84° 280° (W) 05:48:57 435.215
STARS 30 Apr 05:33:46 05:38:06 60° 71° (ENE) 05:42:27 437.465
SO-50 30 Apr 05:49:11 05:52:26 19° 113° (ESE) 05:55:40 436.795
Gurwin Techsat 1B 30 Apr 05:52:48 05:54:50 12° 309° (NW) 05:56:51 435.225
PCSat 30 Apr 06:09:48 06:12:08 13° 343° (NNW) 06:14:27 145.827
CUBESAT XI-V 30 Apr 06:31:53 06:35:30 22° 268° (W) 06:39:09 437.345
AO-7 30 Apr 06:34:33 06:42:34 55° 299° (WNW) 06:50:35 .
DOVE 4 30 Apr 06:38:00 06:41:24 20° 90° (E) 06:44:39 437.250
CUTE-I 30 Apr 06:49:38 06:53:06 17° 89° (E) 06:56:34 437.470
KKS-1 30 Apr 06:52:35 06:54:32 13° 272° (W) 06:56:29 437.445
M-CUBED/EXP-1 PRIME 30 Apr 06:53:08 06:57:00 26° 58° (ENE) 07:00:51 437.505
ITAMSAT 1 30 Apr 06:53:17 06:56:42 18° 304° (WNW) 07:00:07 435.822/435.867
